EUS15UV EGPH-LIPZ

Flight info

Callsign EUS15UV
Flight time N/A
Altitude 25000
Route TLA Y96 OTBUN/N0454F370 DCT ERKIT N110 DOLAS DCT NAVPI DCT UMUPU DCT TUSUK DCT UTABA M738 NATAG/N0449F290 M738 ADOSA/N0381F190 L612 ALBET
Aircraft B738/M-SDE2E3FGHIRWXY/LB1

Departure

Time N/A
Airport Edinburgh Airport (EGPH)

Arrival

Time 2026-05-04 12:27
Airport Venice Marco Polo Airport (LIPZ)
Time Latitude Longitude Altitude Speed Heading
2026-05-04 11:31 49.58675 8.54707 37021 ft 439 kts 160°
2026-05-04 11:33 49.39294 8.68354 37014 ft 438 kts 160°
2026-05-04 11:33 49.33752 8.72235 37022 ft 438 kts 160°
2026-05-04 11:34 49.28198 8.76114 37016 ft 439 kts 160°
2026-05-04 11:34 49.22648 8.79981 37015 ft 438 kts 160°
2026-05-04 11:35 49.17090 8.83845 37002 ft 439 kts 160°
2026-05-04 11:35 49.11534 8.87697 36995 ft 438 kts 160°
2026-05-04 11:36 49.05976 8.91541 37019 ft 439 kts 160°
2026-05-04 11:36 49.00416 8.95376 37015 ft 439 kts 160°
2026-05-04 11:37 48.94843 8.99211 36991 ft 440 kts 160°
2026-05-04 11:37 48.89265 9.03041 37010 ft 440 kts 160°
2026-05-04 11:38 48.83684 9.06863 37012 ft 440 kts 160°
2026-05-04 11:38 48.78127 9.10659 36985 ft 441 kts 160°
2026-05-04 11:39 48.72534 9.14471 36992 ft 441 kts 160°
2026-05-04 11:41 48.52956 9.27741 36996 ft 441 kts 160°
2026-05-04 11:41 48.47353 9.31518 37009 ft 441 kts 160°
2026-05-04 11:42 48.41749 9.35287 36999 ft 441 kts 160°
2026-05-04 11:42 48.36178 9.39025 37009 ft 442 kts 160°
2026-05-04 11:43 48.30557 9.42788 36996 ft 442 kts 160°
2026-05-04 11:43 48.24917 9.46489 36971 ft 441 kts 164°
2026-05-04 11:44 48.19074 9.49099 36994 ft 438 kts 168°
2026-05-04 11:44 48.13193 9.51523 36993 ft 439 kts 168°
2026-05-04 11:45 48.07316 9.54049 36987 ft 440 kts 167°
2026-05-04 11:45 48.01532 9.57070 36983 ft 445 kts 157°
2026-05-04 11:46 47.96346 9.62217 36988 ft 450 kts 147°
2026-05-04 11:46 47.91311 9.67775 36986 ft 450 kts 147°
2026-05-04 11:47 47.86261 9.73286 36978 ft 450 kts 148°
2026-05-04 11:47 47.81191 9.78751 36983 ft 450 kts 148°
2026-05-04 11:48 47.76120 9.84187 36981 ft 449 kts 148°
2026-05-04 11:48 47.71052 9.89606 36986 ft 449 kts 148°
2026-05-04 11:49 47.66017 9.94980 36995 ft 449 kts 148°
2026-05-04 11:49 47.60938 10.00387 36994 ft 450 kts 148°
2026-05-04 11:50 47.55852 10.05790 36977 ft 450 kts 148°
2026-05-04 11:50 47.50766 10.11181 37000 ft 450 kts 147°
2026-05-04 11:51 47.45675 10.16564 36998 ft 450 kts 148°
2026-05-04 11:51 47.40472 10.21682 37020 ft 448 kts 152°
2026-05-04 11:52 47.35135 10.26437 37017 ft 448 kts 152°
2026-05-04 11:52 47.29820 10.31248 37038 ft 449 kts 152°
2026-05-04 11:53 47.24499 10.36043 37055 ft 448 kts 151°
2026-05-04 11:53 47.19236 10.40768 37051 ft 447 kts 152°
2026-05-04 11:55 46.97188 10.56802 37068 ft 441 kts 166°
2026-05-04 11:56 46.91291 10.59391 37057 ft 443 kts 166°
2026-05-04 11:56 46.85393 10.62053 37060 ft 444 kts 166°
2026-05-04 11:57 46.79489 10.64713 37087 ft 445 kts 165°
2026-05-04 11:57 46.73568 10.67371 37085 ft 445 kts 165°
2026-05-04 11:58 46.67614 10.69612 37097 ft 445 kts 170°
2026-05-04 11:58 46.61568 10.71508 37105 ft 443 kts 171°
2026-05-04 11:59 46.55539 10.73413 37128 ft 443 kts 170°
2026-05-04 11:59 46.52515 10.74388 36766 ft 449 kts 170°
2026-05-04 11:59 46.49475 10.75374 36261 ft 446 kts 170°
2026-05-04 11:59 46.46451 10.76360 35671 ft 445 kts 169°
2026-05-04 12:00 46.43427 10.77345 35000 ft 446 kts 169°
2026-05-04 12:00 46.40405 10.78327 34394 ft 446 kts 169°
2026-05-04 12:00 46.37371 10.79311 33676 ft 446 kts 169°
2026-05-04 12:00 46.34340 10.80293 32932 ft 447 kts 169°
2026-05-04 12:01 46.31304 10.81275 32219 ft 447 kts 169°
2026-05-04 12:01 46.28266 10.82257 31491 ft 447 kts 169°
2026-05-04 12:02 46.10531 10.87967 28222 ft 421 kts 169°
2026-05-04 12:03 46.07689 10.88878 27698 ft 416 kts 169°
2026-05-04 12:03 46.04914 10.89767 27187 ft 412 kts 169°
2026-05-04 12:03 46.02124 10.90661 26670 ft 409 kts 169°
2026-05-04 12:03 45.99356 10.91546 26154 ft 406 kts 169°
2026-05-04 12:04 45.96608 10.92423 25649 ft 403 kts 169°
2026-05-04 12:04 45.93879 10.93294 25170 ft 401 kts 169°
2026-05-04 12:04 45.91162 10.94160 24674 ft 399 kts 169°
2026-05-04 12:04 45.88465 10.95019 24186 ft 397 kts 169°
2026-05-04 12:05 45.85770 10.95877 23671 ft 396 kts 169°
2026-05-04 12:05 45.83085 10.96731 23087 ft 394 kts 169°
2026-05-04 12:05 45.80418 10.97578 22590 ft 390 kts 169°
2026-05-04 12:05 45.77781 10.98415 22106 ft 386 kts 169°
2026-05-04 12:06 45.75167 10.99245 21614 ft 383 kts 169°
2026-05-04 12:06 45.72574 11.00067 21125 ft 380 kts 169°
2026-05-04 12:06 45.69997 11.00883 20638 ft 378 kts 169°
2026-05-04 12:06 45.67447 11.01714 20145 ft 376 kts 166°
2026-05-04 12:07 45.65069 11.03249 19655 ft 377 kts 148°
2026-05-04 12:07 45.63081 11.05690 19207 ft 379 kts 133°
2026-05-04 12:07 45.61565 11.08765 18754 ft 379 kts 124°
2026-05-04 12:07 45.60191 11.11961 18256 ft 377 kts 124°
2026-05-04 12:08 45.58810 11.15139 17732 ft 375 kts 124°
2026-05-04 12:08 45.57440 11.18233 17233 ft 372 kts 125°
2026-05-04 12:08 45.56054 11.21325 16770 ft 369 kts 125°
2026-05-04 12:08 45.54673 11.24392 16307 ft 365 kts 125°
2026-05-04 12:09 45.53302 11.27427 15846 ft 362 kts 125°
2026-05-04 12:09 45.51944 11.30434 15386 ft 359 kts 125°
2026-05-04 12:09 45.50599 11.33410 14941 ft 355 kts 125°
2026-05-04 12:09 45.49268 11.36355 14504 ft 352 kts 125°
2026-05-04 12:10 45.47943 11.39283 14064 ft 350 kts 125°
2026-05-04 12:10 45.46630 11.42184 13579 ft 347 kts 125°
2026-05-04 12:10 45.45330 11.45050 13290 ft 339 kts 125°
2026-05-04 12:10 45.44072 11.47825 13135 ft 328 kts 125°
2026-05-04 12:11 45.42719 11.50346 12978 ft 315 kts 140°
2026-05-04 12:11 45.40918 11.52013 12682 ft 306 kts 157°
2026-05-04 12:11 45.38965 11.53188 12323 ft 304 kts 160°
2026-05-04 12:11 45.37005 11.54293 11964 ft 302 kts 160°
2026-05-04 12:12 45.35052 11.55386 11603 ft 301 kts 160°
2026-05-04 12:12 45.33111 11.56480 11248 ft 300 kts 160°
2026-05-04 12:12 45.31178 11.57576 10883 ft 299 kts 160°
2026-05-04 12:12 45.29249 11.58677 10585 ft 296 kts 160°
2026-05-04 12:13 45.27369 11.59754 10457 ft 287 kts 160°
2026-05-04 12:14 45.14958 11.66879 9350 ft 261 kts 160°
2026-05-04 12:15 45.13318 11.67819 9222 ft 254 kts 160°
2026-05-04 12:15 45.11702 11.68747 9129 ft 248 kts 159°
2026-05-04 12:15 45.10292 11.70114 8935 ft 248 kts 134°
2026-05-04 12:15 45.09169 11.71945 8770 ft 247 kts 134°
2026-05-04 12:16 45.08035 11.73772 8561 ft 246 kts 134°
2026-05-04 12:16 45.07003 11.75693 8340 ft 247 kts 116°
2026-05-04 12:16 45.06734 11.78076 8145 ft 249 kts 84°
2026-05-04 12:16 45.07367 11.80329 7963 ft 249 kts 54°
2026-05-04 12:17 45.08560 11.82093 7773 ft 247 kts 42°
2026-05-04 12:17 45.09855 11.83687 7570 ft 247 kts 41°
2026-05-04 12:17 45.11146 11.85264 7387 ft 243 kts 41°
2026-05-04 12:17 45.12415 11.86811 7178 ft 240 kts 41°
2026-05-04 12:18 45.13676 11.88372 6971 ft 242 kts 42°
2026-05-04 12:18 45.14516 11.89421 6849 ft 244 kts 42°
2026-05-04 12:18 45.15795 11.91024 6658 ft 246 kts 42°
2026-05-04 12:18 45.17072 11.92629 6425 ft 244 kts 42°
2026-05-04 12:19 45.18332 11.94221 6203 ft 242 kts 43°
2026-05-04 12:19 45.19590 11.95801 5931 ft 240 kts 42°
2026-05-04 12:19 45.21238 11.97871 5651 ft 238 kts 42°
2026-05-04 12:19 45.22472 11.99424 5450 ft 236 kts 42°
2026-05-04 12:20 45.23688 12.00965 5255 ft 234 kts 41°
2026-05-04 12:20 45.24519 12.01974 5116 ft 232 kts 38°
2026-05-04 12:20 45.25779 12.03388 4940 ft 230 kts 39°
2026-05-04 12:20 45.26989 12.04832 4746 ft 231 kts 41°
2026-05-04 12:21 45.28213 12.06363 4558 ft 233 kts 41°
2026-05-04 12:21 45.29406 12.07895 4373 ft 235 kts 42°
2026-05-04 12:21 45.30626 12.09427 4164 ft 232 kts 41°
2026-05-04 12:21 45.31794 12.10952 3947 ft 224 kts 43°
2026-05-04 12:22 45.32912 12.12430 3784 ft 216 kts 42°
2026-05-04 12:22 45.34012 12.13864 3608 ft 215 kts 41°
2026-05-04 12:22 45.35118 12.15294 3440 ft 214 kts 41°
2026-05-04 12:22 45.36215 12.16713 3268 ft 213 kts 41°
2026-05-04 12:23 45.37306 12.18126 3170 ft 214 kts 42°
2026-05-04 12:23 45.38416 12.19561 2889 ft 215 kts 42°
2026-05-04 12:23 45.39507 12.20972 2619 ft 210 kts 42°
2026-05-04 12:23 45.40580 12.22357 2354 ft 207 kts 42°
2026-05-04 12:24 45.41640 12.23730 2072 ft 204 kts 42°
2026-05-04 12:24 45.42664 12.25053 1832 ft 197 kts 42°
2026-05-04 12:24 45.43651 12.26326 1558 ft 186 kts 43°
2026-05-04 12:24 45.44586 12.27543 1332 ft 177 kts 43°
2026-05-04 12:25 45.45464 12.28672 1098 ft 163 kts 42°
2026-05-04 12:25 45.46287 12.29731 857 ft 156 kts 44°
2026-05-04 12:25 45.47086 12.30761 668 ft 153 kts 44°
2026-05-04 12:25 45.47866 12.31772 461 ft 150 kts 44°
2026-05-04 12:26 45.48629 12.32758 263 ft 147 kts 45°
2026-05-04 12:26 45.49396 12.33749 67 ft 149 kts 45°
2026-05-04 12:26 45.50132 12.34698 17 ft 132 kts 42°
2026-05-04 12:26 45.50660 12.35378 14 ft 71 kts 42°
2026-05-04 12:27 45.50892 12.35674 14 ft 29 kts 41°
2026-05-04 12:27 45.51045 12.35819 13 ft 22 kts 25°
2026-05-04 12:27 45.51141 12.35866 13 ft 12 kts 12°
2026-05-04 12:27 45.51207 12.35885 13 ft 9 kts 12°
2026-05-04 12:28 45.51248 12.35889 14 ft 0 kts 345°
2026-05-04 12:28 45.51261 12.35875 14 ft 6 kts 313°
2026-05-04 12:28 45.51253 12.35801 13 ft 10 kts 232°
2026-05-04 12:29 45.51196 12.35717 14 ft 13 kts 225°
2026-05-04 12:29 45.51126 12.35628 15 ft 15 kts 221°
2026-05-04 12:29 45.51042 12.35520 15 ft 17 kts 223°
2026-05-04 12:29 45.50983 12.35372 17 ft 18 kts 256°
2026-05-04 12:30 45.50941 12.35193 15 ft 20 kts 232°
2026-05-04 12:30 45.50843 12.35060 15 ft 19 kts 221°
2026-05-04 12:30 45.50747 12.34938 15 ft 18 kts 221°
2026-05-04 12:30 45.50666 12.34833 15 ft 13 kts 222°
2026-05-04 12:31 45.50610 12.34740 15 ft 12 kts 252°
2026-05-04 12:31 45.50603 12.34619 15 ft 12 kts 267°
2026-05-04 12:31 45.50599 12.34500 15 ft 12 kts 267°
2026-05-04 12:31 45.50609 12.34392 16 ft 10 kts 301°
2026-05-04 12:32 45.50653 12.34318 15 ft 10 kts 311°
2026-05-04 12:32 45.50699 12.34207 15 ft 6 kts 235°
2026-05-04 12:32 45.50673 12.34164 15 ft 6 kts 228°
2026-05-04 12:33 45.50658 12.34141 15 ft 0 kts 227°